Regional Weather Roundup
Issued by NWS

Home | Current Version | Previous Version | Text Only | Print | Product List | Glossary Off
Versions: 1 2 3 4 5 6 7 8 9 10 11 12 13 14 15 16 17 18 19 20 21 22 23 24 25 26 27 28 29 30 31 32 33 34 35 36 37 38 39 40 41 42 43 44 45 46 47 48 49 50

000
ASUS43 KBIS 221031
RWRND
NORTH DAKOTA REGIONAL WEATHER ROUNDUP
NATIONAL WEATHER SERVICE EASTERN NORTH DAKOTA/GRAND FORKS ND
500 AM CDT THU JUN 22 2017

  NOTE: "FAIR" INDICATES FEW OR NO CLOUDS BELOW 12,000 FEET WITH NO
  SIGNIFICANT WEATHER AND/OR OBSTRUCTIONS TO VISIBILITY.

NDZ001>003-009>011-017-221100-
...NORTHWEST NORTH DAKOTA...

CITY           SKY/WX    TMP DP  RH WIND       PRES   REMARKS
WILLISTON      FAIR      56  48  74 W13       29.82R
MINOT          LGT RAIN  61  45  55 W15G39    29.74R
MINOT AFB      FAIR      56  49  75 W9        29.73S
$$

NDZ018>021-031>035-040>046-221100-
...SOUTHWEST NORTH DAKOTA...

CITY           SKY/WX    TMP DP  RH WIND       PRES   REMARKS
BISMARCK       MOCLDY    60  44  55 NW7       29.81R
DICKINSON      FAIR      52  41  66 N7        29.85S
GARRISON         N/A     58  45  62 NW15      29.79S
HETTINGER      CLOUDY    56  39  53 N10       29.84R
$$

NDZ004>008-012>016-024-026-027-054-221100-
...NORTHEAST NORTH DAKOTA...

CITY           SKY/WX    TMP DP  RH WIND       PRES   REMARKS
GRAND FORKS    FAIR      53  46  77 W7        29.67R
GRAND FORKS AF FAIR      53  43  70 W5        29.68R
DEVILS LAKE    FAIR      58  46  64 W7        29.72S
$$

NDZ022-023-025-028>030-036>039-047>053-221100-
...SOUTHEAST NORTH DAKOTA...

CITY           SKY/WX    TMP DP  RH WIND       PRES   REMARKS
JAMESTOWN      FAIR      57  48  72 SW7       29.75R
FARGO          FAIR      58  50  75 SW3       29.71R
WAHPETON       FAIR      59  52  77 CALM      29.73R
$$




USA.gov is the U.S. government's official web portal to all federal, state and local government web resources and services.